Date String (YYYY-MM-DD hh:mm:ss) UTC,Instrument flags,absolute air pressure of the measurement (hPa),sample flow rate (lpm),inlet stack bypass flow (lpm),air temperature of the measurement (°C),ambient temperature measured by the external sensor (°C),aerosol sample conditioner tube jacket temperature (°C),OPC LED temperature (°C),internal box temperature (°C),relative humidity of the measurement (%),span deviation,mass concentration of particles derived from Lorenz-Mie calculation of OPC scattering (μg/m³),mass concentration of particles derived from Lorenz-Mie calculation of OPC scattering (μg/m³),mass concentration of particles derived from Lorenz-Mie calculation of OPC scattering (μg/m³)
DateTimeUTC,F1_M11,P_M11,Q1_M11,Q2_M11,T1_M11,T2_M11,T3_M11,T4_M11,T5_M11,U1_M11,ZSPAN_M11,X0_M11,X2_M11,X1_M11
2023-06-13 06:00:00,SystemResetWarning,0830.2,5.02,000.00,030.2,028.5,000.0,038.7,031.7,26.1,0000.0,0007.62,0002.81,0002.07
2023-06-13 06:01:00,SystemResetWarning,0830.2,4.99,000.00,030.2,028.5,000.0,038.7,031.6,26.1,0000.0,0007.18,0002.92,0002.10
2023-06-13 06:02:00,SystemResetWarning,0830.3,4.99,000.00,030.2,028.5,000.0,038.7,031.6,26.0,0000.0,0007.37,0003.03,0002.15
2023-06-13 06:03:00,SystemResetWarning,0830.3,5.00,000.00,030.2,028.5,000.0,038.7,031.6,25.9,0000.0,0007.26,0003.07,0002.17
2023-06-13 06:04:00,SystemResetWarning,0830.3,5.01,000.00,030.2,028.5,000.0,038.7,031.6,25.9,0000.0,0006.27,0003.06,0002.18
2023-06-13 06:05:00,SystemResetWarning,0830.3,5.01,000.00,030.2,028.5,000.0,038.7,031.6,25.9,0000.0,0006.22,0003.09,0002.20
2023-06-13 06:06:00,SystemResetWarning,0830.3,4.99,000.00,030.2,028.5,000.0,038.7,031.6,25.8,0000.0,0006.11,0003.10,0002.23
2023-06-13 06:07:00,SystemResetWarning,0830.3,5.00,000.00,030.2,028.5,000.0,038.7,031.6,25.9,0000.0,0006.22,0003.12,0002.24
2023-06-13 06:08:00,SystemResetWarning,0830.3,5.00,000.00,030.2,028.5,000.0,038.7,031.6,25.8,0000.0,0006.11,0003.15,0002.27
2023-06-13 06:09:00,SystemResetWarning,0830.3,5.01,000.00,030.2,028.5,000.0,038.7,031.7,25.7,0000.0,0006.11,0003.16,0002.27
2023-06-13 06:10:00,SystemResetWarning,0830.3,5.00,000.00,030.2,028.5,000.0,038.7,031.7,25.5,0000.0,0006.75,0003.16,0002.26
2023-06-13 06:11:00,SystemResetWarning,0830.3,4.99,000.00,030.2,028.5,000.0,038.7,031.7,25.3,0000.0,0007.60,0003.13,0002.24
2023-06-13 06:12:00,SystemResetWarning,0830.3,4.99,000.00,030.2,028.5,000.0,038.7,031.7,25.1,0000.0,0008.05,0003.07,0002.20
2023-06-13 06:13:00,SystemResetWarning,0830.3,4.99,000.00,030.2,028.5,000.0,038.7,031.6,25.1,0000.0,0008.40,0002.97,0002.16
2023-06-13 06:14:00,SystemResetWarning,0830.2,5.01,000.00,030.2,028.5,000.0,038.7,031.6,25.2,0000.0,0008.77,0002.95,0002.14
2023-06-13 06:15:00,SystemResetWarning,0830.2,5.01,000.00,030.2,028.5,000.0,038.7,031.6,25.1,0000.0,0009.17,0002.97,0002.14
2023-06-13 06:16:00,SystemResetWarning,0830.3,5.00,000.00,030.2,028.5,000.0,038.7,031.6,25.1,0000.0,0009.21,0002.98,0002.13
2023-06-13 06:17:00,SystemResetWarning,0830.2,5.00,000.00,030.2,028.5,000.0,038.7,031.6,25.1,0000.0,0009.20,0002.97,0002.10
2023-06-13 06:18:00,SystemResetWarning,0830.2,5.00,000.00,030.2,028.5,000.0,038.7,031.7,24.9,0000.0,0009.12,0002.93,0002.08
2023-06-13 06:19:00,SystemResetWarning,0830.2,5.01,000.00,030.2,028.5,000.0,038.7,031.6,24.7,0000.0,0009.08,0002.93,0002.07
2023-06-13 06:20:00,SystemResetWarning,0830.2,4.99,000.00,030.2,028.5,000.0,038.7,031.6,24.7,0000.0,0008.90,0002.99,0002.05
2023-06-13 06:21:00,SystemResetWarning,0830.2,4.99,000.00,030.2,028.5,000.0,038.7,031.6,24.7,0000.0,0008.80,0003.05,0002.05
2023-06-13 06:22:00,SystemResetWarning,0830.1,4.99,000.00,030.2,028.5,000.0,038.7,031.6,24.8,0000.0,0009.01,0003.32,0002.13
2023-06-13 06:23:00,SystemResetWarning,0830.1,5.00,000.00,030.2,028.5,000.0,038.7,031.6,24.7,0000.0,0010.93,0003.78,0002.27
2023-06-13 06:24:00,SystemResetWarning,0830.1,5.00,000.00,030.1,028.5,000.0,038.7,031.6,24.6,0000.0,0012.66,0004.11,0002.39
2023-06-13 06:25:00,SystemResetWarning,0830.1,5.00,000.00,030.2,028.5,000.0,038.7,031.6,24.5,0000.0,0013.60,0004.47,0002.48
2023-06-13 06:26:00,SystemResetWarning,0830.1,5.00,000.00,030.2,028.5,000.0,038.7,031.6,24.3,0000.0,0014.01,0004.73,0002.52
2023-06-13 06:27:00,SystemResetWarning,0830.1,5.00,000.00,030.2,028.5,000.0,038.7,031.6,24.1,0000.0,0015.10,0004.82,0002.52
2023-06-13 06:28:00,SystemResetWarning,0830.1,4.99,000.00,030.2,028.5,000.0,038.7,031.6,24.0,0000.0,0015.27,0004.84,0002.51
2023-06-13 06:29:00,SystemResetWarning,0830.1,5.00,000.00,030.2,028.5,000.0,038.7,031.6,24.0,0000.0,0015.39,0004.87,0002.49
2023-06-13 06:30:00,SystemResetWarning,0830.1,5.00,000.00,030.2,028.5,000.0,038.7,031.6,24.0,0000.0,0016.07,0004.89,0002.48
2023-06-13 06:31:00,SystemResetWarning,0830.1,5.00,000.00,030.2,028.5,000.0,038.7,031.6,23.9,0000.0,0016.24,0004.87,0002.46
2023-06-13 06:32:00,SystemResetWarning,0830.1,5.00,000.00,030.2,028.5,000.0,038.7,031.6,23.9,0000.0,0016.28,0004.85,0002.44
2023-06-13 06:33:00,SystemResetWarning,0830.1,5.01,000.00,030.2,028.5,000.0,038.7,031.6,23.9,0000.0,0015.52,0004.68,0002.37
2023-06-13 06:34:00,SystemResetWarning,0830.1,5.00,000.00,030.2,028.5,000.0,038.7,031.6,23.8,0000.0,0013.78,0004.30,0002.25
2023-06-13 06:35:00,SystemResetWarning,0830.1,4.99,000.00,030.2,028.4,000.0,038.7,031.6,23.8,0000.0,0011.55,0003.93,0002.09
2023-06-13 06:36:00,SystemResetWarning,0830.1,5.01,000.00,030.2,028.4,000.0,038.7,031.6,23.8,0000.0,0009.83,0003.55,0001.97
2023-06-13 06:37:00,SystemResetWarning,0830.0,5.02,000.00,030.2,028.4,000.0,038.7,031.6,23.7,0000.0,0008.94,0003.23,0001.87
2023-06-13 06:38:00,SystemResetWarning,0830.0,5.00,000.00,030.2,028.4,000.0,038.7,031.6,23.7,0000.0,0007.69,0003.03,0001.82
2023-06-13 06:39:00,SystemResetWarning,0830.0,4.99,000.00,030.2,028.4,000.0,038.7,031.6,23.7,0000.0,0007.43,0002.96,0001.79
2023-06-13 06:40:00,SystemResetWarning,0830.0,5.00,000.00,030.2,028.4,000.0,038.7,031.6,23.8,0000.0,0007.35,0002.94,0001.77
2023-06-13 06:41:00,SystemResetWarning,0830.0,5.00,000.00,030.2,028.4,000.0,038.7,031.6,23.9,0000.0,0006.46,0002.83,0001.75
2023-06-13 06:42:00,SystemResetWarning,0830.0,5.01,000.00,030.2,028.4,000.0,038.7,031.6,23.8,0000.0,0005.31,0002.71,0001.71
2023-06-13 06:43:00,SystemResetWarning,0830.0,5.01,000.00,030.2,028.4,000.0,038.7,031.6,23.8,0000.0,0005.50,0002.66,0001.68
2023-06-13 06:44:00,SystemResetWarning,0830.0,5.00,000.00,030.2,028.4,000.0,038.7,031.6,23.8,0000.0,0005.52,0002.64,0001.68
2023-06-13 06:45:00,SystemResetWarning,0830.0,4.99,000.00,030.1,028.4,000.0,038.7,031.6,23.8,0000.0,0005.37,0002.58,0001.68
2023-06-13 06:46:00,SystemResetWarning,0830.0,5.00,000.00,030.2,028.4,000.0,038.7,031.6,23.7,0000.0,0005.77,0002.55,0001.68
2023-06-13 06:47:00,SystemResetWarning,0830.0,5.01,000.00,030.2,028.4,000.0,038.7,031.6,23.7,0000.0,0006.29,0002.55,0001.68
2023-06-13 06:48:00,SystemResetWarning,0830.0,4.99,000.00,030.1,028.4,000.0,038.7,031.6,23.7,0000.0,0006.40,0002.59,0001.67
2023-06-13 06:49:00,SystemResetWarning,0830.0,4.99,000.00,030.1,028.4,000.0,038.7,031.6,23.8,0000.0,0007.49,0002.69,0001.69
2023-06-13 06:50:00,SystemResetWarning,0830.0,4.99,000.00,030.2,028.4,000.0,038.7,031.6,23.8,0000.0,0007.75,0002.68,0001.71
2023-06-13 06:51:00,SystemResetWarning,0830.0,5.01,000.00,030.2,028.4,000.0,038.7,031.6,23.8,0000.0,0007.78,0002.66,0001.73
2023-06-13 06:52:00,SystemResetWarning,0830.0,5.01,000.00,030.1,028.4,000.0,038.7,031.6,23.8,0000.0,0008.00,0002.77,0001.75
2023-06-13 06:53:00,SystemResetWarning,0829.9,4.99,000.00,030.1,028.4,000.0,038.7,031.6,23.9,0000.0,0008.15,0002.90,0001.77
2023-06-13 06:54:00,SystemResetWarning,0829.9,4.99,000.00,030.1,028.4,000.0,038.7,031.6,24.0,0000.0,0008.13,0002.93,0001.80
2023-06-13 06:55:00,SystemResetWarning,0830.0,5.00,000.00,030.1,028.4,000.0,038.7,031.6,24.2,0000.0,0007.81,0002.89,0001.80
2023-06-13 06:56:00,SystemResetWarning,0829.9,5.00,000.00,030.1,028.3,000.0,038.7,031.6,24.3,0000.0,0007.85,0002.89,0001.80
2023-06-13 06:57:00,SystemResetWarning,0829.9,5.00,000.00,030.1,028.3,000.0,038.7,031.5,24.3,0000.0,0007.77,0002.94,0001.82
2023-06-13 06:58:00,SystemResetWarning,0830.0,5.01,000.00,030.1,028.3,000.0,038.7,031.5,24.2,0000.0,0007.63,0003.07,0001.86
2023-06-13 06:59:00,SystemResetWarning,0830.0,5.01,000.00,030.1,028.3,000.0,038.7,031.5,24.2,0000.0,0008.04,0003.19,0001.93
